User: anonymous   Login
Location: Albany
(35.0000°S, 118.0000°E)
Time: 00:47:53
(UTC-04:00)
Language:

Cosmos 1758 Rocket - Orbit

View from above orbital plane
View from above orbital plane
View from above satellite
View from above satellite

Ground track
Ground track

The orbit data is extracted from the following two-line orbital elements,

1 16792U 86046B   17207.85161420 +.00000065 +00000-0 +50200-5 0  9996
2 16792 082.4837 165.0888 0024746 159.1174 231.2820 14.83138538659671
Epoch (UTC): 26 July 2017 20:26:19
Eccentricity: 0.0024746
inclination: 82.4837°
perigee height: 602 km
apogee height: 637 km
right ascension of ascending node: 165.0888°
argument of perigee: 159.1174°
revolutions per day: 14.83138538
mean anomaly at epoch: 231.2820°
orbit number at epoch: 65967

The dashed part of the orbit path shows where the satellite is in the earth's shadow,  

DLR